{"data":{"norad_id":66603,"intl_designator":"2025-270R","name":"STARLINK-36048","alt_names":[],"object_type":"PAYLOAD","status":"ACTIVE","operator":null,"country":"US","launch_date":"2025-11-22","launch_site_code":"AFETR","launch_vehicle":null,"mission":null,"orbit_class":"UNKNOWN","rcs_meters":null,"size_class":null,"mass_kg":null,"dimensions":null,"purposes":["comms"],"wikipedia_slug":null,"has_3d_model":false,"image_url":null,"decayed_at":null,"tle_current":{"epoch":"2026-09-20T20:02:17.466432Z","epoch_age_seconds":58171,"freshness":"FRESH","line1":"1 66603U 25270R   26263.83492438  .00010119  00000+0  37665-3 0  9998","line2":"2 66603  43.0018  33.8541 0001471 265.9400  94.1283 15.27588189 47453","mean_motion":15.27588189,"eccentricity":0.0001471,"inclination_deg":43.0018,"raan_deg":33.8541,"arg_perigee_deg":265.94,"mean_anomaly_deg":94.1283,"bstar":0.00037665,"rev_number":4745,"period_min":94.266243374313,"perigee_km":482.01529846949,"apogee_km":484.03385220495,"semimajor_km":6861.1615753372,"source":"CELESTRAK","updated_at":"2026-09-21T09:00:35.978861Z"}}}